DW5499 Weather Reports


time (UTC)temp
F
wind
direction
speed
knots
gust
knots
rain 1hr
in
rain 24hr
in
rain mn
in
humidity
%
barometer
mb
20260504041512 68 41 5.2 9.6 0.00 0.00 0.00 52 1008.2
20260504040014 67 340 4.3 8.7 0.00 0.00 0.00 59 1008.5
20260504034517 66 261 0.0 4.3 0.00 0.00 0.00 65 1007.7
20260504033009 67 253 1.7 2.6 0.00 0.00 0.00 64 1008.0
20260504031509 67 89 0.9 1.7 0.00 0.00 0.00 63 1007.7
20260504030008 67 322 0.0 2.6 0.00 0.00 0.00 60 1008.2
20260504024509 68 250 0.0 0.0 0.00 0.00 0.00 63 1007.9
20260504023007 68 250 0.0 0.9 0.00 0.00 0.00 62 1007.8
20260504021506 69 249 0.0 1.7 0.00 0.00 0.00 60 1007.6
20260504020005 70 10 0.0 0.0 0.00 0.00 0.00 57 1007.5
20260504014504 71 10 0.0 0.0 0.00 0.00 0.00 53 1007.5
20260504013003 73 10 0.0 0.9 0.00 0.00 0.00 49 1007.5
20260504011502 74 10 0.0 1.7 0.00 0.00 0.00 43 1007.5
20260504010105 75 358 0.0 1.7 0.00 0.00 0.00 43 1007.4
20260504004600 76 358 0.0 1.7 0.00 0.00 0.00 41 1007.6
20260504003058 77 358 0.9 2.6 0.00 0.00 0.00 40 1007.7
20260504001558 77 358 0.9 2.6 0.00 0.00 0.00 38 1007.8
20260504000135 78 345 1.7 4.3 0.00 0.00 0.00 38 1008.0
20260503234554 78 335 1.7 5.2 0.00 0.00 0.00 37 1008.1
20260503233053 79 287 0.9 4.3 0.00 0.00 0.00 36 1008.2
20260503231552 79 294 2.6 6.1 0.00 0.00 0.00 35 1008.3
20260503230054 79 256 1.7 6.1 0.00 0.00 0.00 34 1008.5
20260503224548 80 247 0.9 7.8 0.00 0.00 0.00 34 1008.7
20260503223048 81 277 3.5 8.7 0.00 0.00 0.00 33 1008.7
20260503221546 80 345 1.7 6.1 0.00 0.00 0.00 34 1008.8
20260503220046 80 232 1.7 7.8 0.00 0.00 0.00 35 1008.9
20260503214543 80 261 3.5 9.6 0.00 0.00 0.00 34 1009.1
20260503213042 80 296 2.6 6.1 0.00 0.00 0.00 36 1009.3
20260503211540 80 239 5.2 9.6 0.00 0.00 0.00 34 1009.5
20260503210038 80 245 4.3 10.4 0.00 0.00 0.00 35 1009.7
20260503204535 79 275 2.6 8.7 0.00 0.00 0.00 35 1009.9
20260503203036 79 247 5.2 13.0 0.00 0.00 0.00 36 1010.1
20260503201532 79 224 4.3 11.3 0.00 0.00 0.00 37 1010.2
20260503200030 79 335 5.2 11.3 0.00 0.00 0.00 36 1010.4
20260503194529 78 224 2.6 11.3 0.00 0.00 0.00 36 1010.5
20260503193025 78 234 3.5 12.2 0.00 0.00 0.00 37 1010.7
20260503191522 77 199 3.5 12.2 0.00 0.00 0.00 38 1010.8
20260503190024 77 245 7.8 12.2 0.00 0.00 0.00 38 1011.0
20260503184520 77 255 6.1 10.4 0.00 0.00 0.00 38 1011.2
20260503183015 76 245 5.2 12.2 0.00 0.00 0.00 42 1011.4
20260503181511 75 237 3.5 12.2 0.00 0.00 0.00 43 1011.7
20260503180007 74 232 6.1 14.8 0.00 0.00 0.00 44 1012.1
20260503174507 73 261 7.8 18.2 0.00 0.00 0.00 44 1012.4
20260503173005 72 213 6.1 14.8 0.00 0.00 0.00 44 1012.6
20260503171613 71 200 9.6 17.4 0.00 0.00 0.00 44 1012.7
20260503170106 71 269 4.3 15.6 0.00 0.00 0.00 44 1012.8
20260503081537 50 159 4.3 7.8 0.00 0.00 0.00 57 1016.3
20260503071540 50 160 4.3 7.8 0.00 0.00 0.00 57 1016.7
20260503054521 52 206 4.3 7.0 0.00 0.00 0.00 53 1017.3
20260503053013 52 153 4.3 6.1 0.00 0.00 0.00 53 1017.5
20260503051507 52 187 2.6 6.1 0.00 0.00 0.00 52 1017.6
20260503050006 53 152 3.5 7.0 0.00 0.00 0.00 51 1017.7
20260503044506 53 177 4.3 7.8 0.00 0.00 0.00 50 1018.2
20260503043000 53 150 1.7 6.1 0.00 0.00 0.00 49 1018.2